ハリントン彗星

51P/Harrington (2015)

English version
Home page
Updated on June 11, 2016

---------------------------------------------------------------------

・ プロフィール

・ 写真集

・ 軌道要素

51P/Harrington
Epoch 2015 Aug. 6.0 TT = JDT 2457240.5
T 2015 Aug. 12.69971 TT                                 MPCW
q   1.6996288            (2000.0)            P               Q
n   0.13766803     Peri.  269.29067     +0.98806109     +0.12209633
a   3.7146164      Node    83.69305     -0.07402214     +0.91108256
e   0.5424484      Incl.    5.42417     -0.13511478     +0.39372713
P   7.16
From 672 observations 2001 Aug. 27-2015 May 28, mean residual 0".7.
     Nongravitational parameters A1 = +3.01, A2 = +0.4167.

51P-D/Harrington
Epoch 2015 Aug. 6.0 TT = JDT 2457240.5
T 2015 Aug. 11.54837 TT                                 MPCW
q   1.6994096            (2000.0)            P               Q
n   0.13772485     Peri.  269.28574     +0.98802285     +0.12238586
a   3.7135947      Node    83.68124     -0.07427606     +0.91105321
e   0.5423815      Incl.    5.42577     -0.13525498     +0.39370516
P   7.16
From 161 observations 1994 June 13-2015 May 30, mean residual 0".9.
     Nongravitational parameters A1 = +5.67, A2 = +0.0667.

・ 星図

・ 光度変化

	主核:
        m1 = -7.5 + 5 logΔ + 100 log r(t + 70)

        ※ 灰色の曲線は、m1 = 10.0 + 5 logΔ + 15.0 log r の光度曲線です。

	D核:
        m1 = 12.0 + 5 logΔ + 30.0 log r  [ ,0]  (              〜2015年 8月12日)
        m1 = 15.5 + 5 logΔ + 15.0 log r  [0, ]  (2015年 8月12日〜              )

---------------------------------------------------------------------

軌道要素はM.P.E.C. 2015-K139に掲載されたものです。
D核の軌道要素はM.P.E.C. 2015-L08に掲載されたものです。
星図はステラナビゲータ Ver.8 (アストロアーツ) で作成したものです。
光度グラフはComet for Windowsで作成したものです。

---------------------------------------------------------------------

Copyright(C) Seiichi Yoshida (comet@aerith.net). All rights reserved.